IW5EFR Vecchia di Pontedera IT current weather conditions

sailwx.info

Wind from 322 at 1 knots gusting 4

Air temperature 14.4° C
Dewpoint -0.1° C

Last reported at 2017-Feb-26 11:51 UTC.
Time now 2017-Feb-26 13:03 UTC

Location: N 43°37' E 010°38'.
View on Google Maps.

See reports from other nearby stations

  
Tides and Currents Weather Stations Pressure Air Temp Water Temp Dewpoint Dewpoint Depression Visibility Wind Speed Wind Dir Waves Ship Positions
date/time (UTC)wind fromknots sea level pressurealtimeterstation pressurevisibilityair tempwater tempwave heightnotes
2017-Feb-26 11:51 322 1 gusting 4 14.4
2017-Feb-26 11:46 327 3 gusting 4 14.4
2017-Feb-26 11:41 279 1 gusting 3 14.4
2017-Feb-26 11:36 280 14.4
2017-Feb-26 11:31 295 1 gusting 5 14.4
2017-Feb-26 11:26 295 1 gusting 5 14.4
2017-Feb-26 11:21 306 1 gusting 4 14.4
2017-Feb-26 11:16 267 1 gusting 4 14.4
2017-Feb-26 11:11 294 13.9
2017-Feb-26 11:06 305 2 gusting 4 13.9
2017-Feb-26 11:01 323 13.9
2017-Feb-26 10:56 307 0 gusting 3 13.3
2017-Feb-26 10:51 307 0 gusting 4 13.3
2017-Feb-26 10:46 010 1 gusting 4 13.3
2017-Feb-26 10:41 010 12.8
2017-Feb-26 10:36 010 1 gusting 3 12.8
2017-Feb-26 10:31 020 0 gusting 5 12.8
2017-Feb-26 10:26 020 2 gusting 5 12.8
2017-Feb-26 10:21 020 1 gusting 3 12.8
2017-Feb-26 10:16 153 2 gusting 3 12.8
2017-Feb-26 10:11 153 12.2
2017-Feb-26 10:06 153 0 gusting 3 12.2
2017-Feb-26 10:01 154 1 gusting 2 12.2
2017-Feb-26 09:56 154 0 gusting 2 12.2
2017-Feb-26 09:51 154 11.7
2017-Feb-26 09:46 154 11.7
2017-Feb-26 09:41 154 0 gusting 3 11.7
2017-Feb-26 09:36 154 1 gusting 3 11.1
2017-Feb-26 09:31 154 0 gusting 4 11.1
2017-Feb-26 09:26 154 11.1
2017-Feb-26 09:21 154 11.1
2017-Feb-26 09:16 154 10.6
2017-Feb-26 09:11 154 1 gusting 3 10.6
2017-Feb-26 09:06 154 10.6
2017-Feb-26 09:01 154 0 gusting 3 10.0
2017-Feb-26 08:56 154 10.0
2017-Feb-26 08:51 154 0 gusting 2 10.0
2017-Feb-26 08:46 154 3 gusting 2 9.4
2017-Feb-26 08:41 154 9.4
2017-Feb-26 08:36 154 8.9
2017-Feb-26 08:31 154 1 gusting 4 8.9
2017-Feb-26 08:26 154 3 gusting 4 8.9
2017-Feb-26 08:21 154 1 gusting 3 8.3
2017-Feb-26 08:16 154 1 gusting 3 8.3
2017-Feb-26 08:11 154 1 gusting 2 8.3
2017-Feb-26 08:06 154 2 gusting 2 7.8
2017-Feb-26 08:01 154 1 7.8
2017-Feb-26 07:56 154 7.2
2017-Feb-26 07:51 154 6.7
2017-Feb-26 07:46 154 6.1
2017-Feb-26 07:41 154 6.1
2017-Feb-26 07:36 154 1 gusting 3 5.6
2017-Feb-26 07:31 154 0 gusting 4 5.6
2017-Feb-26 07:26 154 5.0
2017-Feb-26 07:21 154 4.4
2017-Feb-26 07:16 154 2 gusting 4 4.4
2017-Feb-26 07:11 155 2 gusting 3 3.9
2017-Feb-26 07:06 155 3.9
2017-Feb-26 07:01 155 2 gusting 4 3.3
2017-Feb-26 06:56 155 2 gusting 4 3.3
2017-Feb-26 06:51 155 3 gusting 2 2.8
2017-Feb-26 06:46 162 2 gusting 2 2.8
2017-Feb-26 06:41 163 2.8
2017-Feb-26 06:36 163 2 gusting 3 2.8
2017-Feb-26 06:31 163 2.2
2017-Feb-26 06:26 163 2 gusting 4 2.2
2017-Feb-26 06:21 163 1 gusting 4 2.2
2017-Feb-26 06:16 163 0 gusting 4 2.2
2017-Feb-26 06:11 163 1 2.2
2017-Feb-26 06:06 163 2 2.2
2017-Feb-26 06:01 163 2.2
2017-Feb-26 05:56 163 2.2
2017-Feb-26 05:51 163 2.2
2017-Feb-26 05:46 163 2.8
2017-Feb-26 05:41 163 2.8
2017-Feb-26 05:36 163 2.8
2017-Feb-26 05:31 163 2.8
2017-Feb-26 05:26 163 2.8
2017-Feb-26 05:21 163 2.8
2017-Feb-26 05:16 163 2.8
2017-Feb-26 05:11 163 2.8
2017-Feb-26 05:06 163 3.3
2017-Feb-26 05:01 163 3.3
2017-Feb-26 04:56 163 2 2.8
2017-Feb-26 04:51 163 2.2
2017-Feb-26 04:46 163 2.2
2017-Feb-26 04:41 163 2.2
2017-Feb-26 04:36 163 2.2
2017-Feb-26 04:31 163 1.7
2017-Feb-26 04:26 163 1.7
2017-Feb-26 04:21 163 2.2
2017-Feb-26 04:16 163 2.2
2017-Feb-26 04:11 163 2.2
2017-Feb-26 04:06 163 2.2
2017-Feb-26 04:01 163 2.2
2017-Feb-26 03:56 163 2.8
2017-Feb-26 03:51 163 2.8
2017-Feb-26 03:46 163 2.8
2017-Feb-26 03:41 163 2.8
2017-Feb-26 03:36 163 3.3
2017-Feb-26 03:31 163 3.3
2017-Feb-26 03:26 163 3.3
2017-Feb-26 03:21 163 3.3
2017-Feb-26 03:16 163 3.3
2017-Feb-26 03:11 163 3.3
2017-Feb-26 03:06 163 3.3
2017-Feb-26 03:01 163 2.8
2017-Feb-26 02:56 163 2.8
2017-Feb-26 02:51 163 2.8
2017-Feb-26 02:46 163 2.8
2017-Feb-26 02:41 163 2.8
2017-Feb-26 02:36 163 2.8
2017-Feb-26 02:31 163 3.3
2017-Feb-26 02:26 163 3.3
2017-Feb-26 02:21 163 3.3
2017-Feb-26 02:16 163 3.3
2017-Feb-26 02:11 163 3.3
2017-Feb-26 02:06 163 3.3
2017-Feb-26 02:01 163 3.3
2017-Feb-26 01:56 163 3.9
2017-Feb-26 01:51 163 3.9
2017-Feb-26 01:46 163 4.4
2017-Feb-26 01:41 163 4.4
2017-Feb-26 01:36 163 4.4
2017-Feb-26 01:31 163 4.4
2017-Feb-26 01:26 163 5.0
2017-Feb-26 01:21 163 5.0
2017-Feb-26 01:16 163 5.0
2017-Feb-26 01:11 163 5.6
2017-Feb-26 01:06 163 5.6
2017-Feb-26 01:01 163 5.6
2017-Feb-26 00:56 163 5.6
2017-Feb-26 00:51 163 2 gusting 5 5.6
2017-Feb-26 00:46 153 5 gusting 5 6.1
2017-Feb-26 00:41 151 5 gusting 5 6.1
2017-Feb-26 00:36 145 4 gusting 5 6.7
2017-Feb-26 00:31 144 3 gusting 5 6.7
2017-Feb-26 00:26 144 4 gusting 5 6.7
2017-Feb-26 00:21 140 2 gusting 5 6.7
2017-Feb-26 00:16 140 4 gusting 5 6.7
2017-Feb-26 00:11 136 3 gusting 3 6.7
2017-Feb-26 00:06 134 4 gusting 3 6.7
2017-Feb-26 00:01 132 2 gusting 3 6.7
2017-Feb-25 23:56 131 1 gusting 3 6.7
2017-Feb-25 23:51 131 1 6.7
2017-Feb-25 23:46 130 0 6.7
2017-Feb-25 23:41 128 6.7
2017-Feb-25 23:36 129 6.7
2017-Feb-25 23:31 129 7.2
2017-Feb-25 23:26 129 7.2
2017-Feb-25 23:21 129 7.2
2017-Feb-25 23:16 129 7.8
2017-Feb-25 23:11 129 7.8
2017-Feb-25 23:06 127 3 gusting 2 7.8
2017-Feb-25 23:01 124 2 7.8
2017-Feb-25 22:56 121 7.8
2017-Feb-25 22:51 121 8.3
2017-Feb-25 22:46 121 8.3
2017-Feb-25 22:41 121 8.3
2017-Feb-25 22:36 121 8.3
2017-Feb-25 22:32 121 8.9
2017-Feb-25 22:29 121 8.9
2017-Feb-25 22:24 121 8.9
2017-Feb-25 22:19 121 8.9
2017-Feb-25 22:14 121 1 gusting 4 8.9
2017-Feb-25 22:09 120 1 gusting 4 8.9
2017-Feb-25 22:04 120 1 gusting 4 8.9
2017-Feb-25 21:59 121 2 gusting 6 8.9
2017-Feb-25 21:54 121 3 gusting 6 8.9
2017-Feb-25 21:49 111 8.9
2017-Feb-25 21:44 105 8.9
2017-Feb-25 21:39 104 8.9
2017-Feb-25 21:34 104 0 gusting 4 8.9
2017-Feb-25 21:29 104 0 gusting 7 8.9
2017-Feb-25 21:24 108 1 gusting 7 9.4
2017-Feb-25 21:19 098 0 gusting 6 9.4
2017-Feb-25 21:14 103 1 gusting 6 9.4
2017-Feb-25 21:09 092 1 gusting 8 9.4
2017-Feb-25 21:04 092 9.4
2017-Feb-25 20:59 103 6 gusting 7 9.4
2017-Feb-25 20:54 062 3 gusting 7 9.4
2017-Feb-25 20:49 098 9.4
2017-Feb-25 20:44 097 0 gusting 6 9.4
2017-Feb-25 20:39 055 1 gusting 10 9.4
2017-Feb-25 20:34 107 0 gusting 10 9.4
2017-Feb-25 20:29 096 2 gusting 11 9.4
2017-Feb-25 20:24 101 1 gusting 11 9.4
2017-Feb-25 20:19 094 9.4
2017-Feb-25 20:14 113 1 gusting 9 9.4
2017-Feb-25 20:09 108 0 gusting 9 9.4
2017-Feb-25 20:04 114 6 gusting 9 9.4
2017-Feb-25 19:59 086 2 gusting 9 9.4
2017-Feb-25 19:54 112 0 gusting 9 9.4
2017-Feb-25 19:49 098 0 gusting 12 10.0
2017-Feb-25 19:44 104 6 gusting 12 10.0
2017-Feb-25 19:39 102 0 gusting 12 10.0
2017-Feb-25 19:34 096 0 gusting 12 10.0
2017-Feb-25 19:29 102 1 gusting 11 10.0
2017-Feb-25 19:24 028 2 gusting 11 10.0
2017-Feb-25 19:19 114 1 gusting 12 10.0
2017-Feb-25 19:14 101 1 gusting 12 10.0
2017-Feb-25 19:09 096 4 gusting 11 10.0
2017-Feb-25 19:04 097 2 gusting 11 10.0
2017-Feb-25 18:59 100 1 gusting 13 10.0
2017-Feb-25 18:54 044 2 gusting 13 10.0
2017-Feb-25 18:49 071 3 gusting 13 10.0
2017-Feb-25 18:45 066 6 gusting 13 10.0
2017-Feb-25 18:40 060 1 gusting 14 10.0
2017-Feb-25 18:35 083 2 gusting 14 10.6
2017-Feb-25 18:30 067 3 gusting 19 10.6
2017-Feb-25 18:25 094 2 gusting 19 10.6
2017-Feb-25 18:20 082 7 gusting 15 10.6
2017-Feb-25 18:15 096 2 gusting 15 10.6
2017-Feb-25 18:10 105 12 gusting 17 10.6
2017-Feb-25 18:05 114 3 gusting 17 10.6
2017-Feb-25 18:00 091 5 gusting 15 10.6
2017-Feb-25 17:55 100 4 gusting 15 10.6
2017-Feb-25 17:50 096 8 gusting 12 10.6
2017-Feb-25 17:45 059 2 gusting 12 10.6
2017-Feb-25 17:40 103 0 gusting 13 11.1
2017-Feb-25 17:35 046 3 gusting 13 11.1
2017-Feb-25 17:30 110 2 gusting 13 11.1
2017-Feb-25 17:25 098 11.1
2017-Feb-25 17:20 071 6 gusting 16 11.1
2017-Feb-25 17:15 097 2 gusting 16 11.1
2017-Feb-25 17:10 138 3 gusting 14 11.7
2017-Feb-25 17:00 114 6 gusting 11 11.7
2017-Feb-25 16:55 100 6 gusting 11 11.7
2017-Feb-25 16:50 100 4 gusting 14 11.7
2017-Feb-25 16:45 096 0 gusting 14 11.7
2017-Feb-25 16:40 112 7 gusting 13 12.2
2017-Feb-25 16:35 098 1 gusting 13 12.2
2017-Feb-25 16:30 054 2 gusting 13 12.2
2017-Feb-25 16:25 100 6 gusting 13 12.2
2017-Feb-25 16:19 077 11 gusting 13 12.2
2017-Feb-25 16:14 100 1 gusting 13 12.8
2017-Feb-25 16:09 115 1 gusting 13 12.8
2017-Feb-25 16:04 086 2 gusting 13 12.8
2017-Feb-25 15:59 092 6 gusting 14 12.8
2017-Feb-25 15:55 090 4 gusting 14 12.8
2017-Feb-25 15:49 120 4 gusting 15 13.3
2017-Feb-25 15:44 065 2 gusting 15 13.3
2017-Feb-25 15:39 046 5 gusting 14 13.3
2017-Feb-25 15:34 036 3 gusting 14 13.3
2017-Feb-25 15:29 101 7 gusting 19 13.3
2017-Feb-25 15:24 050 3 gusting 19 13.3
2017-Feb-25 15:19 043 6 gusting 20 13.3
2017-Feb-25 15:14 059 9 gusting 20 13.3
2017-Feb-25 15:09 070 2 gusting 23 13.3
2017-Feb-25 15:04 101 12 gusting 23 13.3
2017-Feb-25 14:59 058 4 gusting 16 13.3
2017-Feb-25 14:54 105 8 gusting 16 13.3
2017-Feb-25 14:49 080 11 gusting 13 13.9
2017-Feb-25 14:44 088 2 gusting 13 13.9
2017-Feb-25 14:39 092 4 gusting 14 13.9
2017-Feb-25 14:34 032 2 gusting 14 13.9
2017-Feb-25 14:29 026 2 gusting 19 13.9
2017-Feb-25 14:24 086 0 gusting 19 13.3
2017-Feb-25 14:19 089 4 gusting 13 13.3
2017-Feb-25 14:14 085 6 gusting 13 13.9
2017-Feb-25 14:09 091 2 gusting 12 13.9
2017-Feb-25 14:04 096 2 gusting 12 13.9
2017-Feb-25 13:59 011 5 gusting 15 13.3
2017-Feb-25 13:54 080 2 gusting 15 13.3
2017-Feb-25 13:49 082 6 gusting 19 13.3
2017-Feb-25 13:44 087 12 gusting 19 13.3
2017-Feb-25 13:39 044 3 gusting 26 13.3
2017-Feb-25 13:34 084 9 gusting 26 13.3
2017-Feb-25 13:29 093 9 gusting 18 13.3
2017-Feb-25 13:24 011 6 gusting 18 13.3
2017-Feb-25 13:19 088 5 gusting 19 13.3
2017-Feb-25 13:14 082 6 gusting 19 13.3
2017-Feb-25 13:09 069 8 gusting 20 13.3
2017-Feb-25 13:04 086 2 gusting 20 13.3
2017-Feb-25 12:59 050 3 gusting 19 13.3
2017-Feb-25 12:54 082 2 gusting 19 12.8
2017-Feb-25 12:49 103 6 gusting 14 12.8
2017-Feb-25 12:44 097 7 gusting 14 12.8
2017-Feb-25 12:39 059 10 gusting 19 12.8
2017-Feb-25 12:34 049 5 gusting 19 13.3
2017-Feb-25 12:29 005 3 gusting 15 13.3
2017-Feb-25 12:24 019 4 gusting 15 13.3
2017-Feb-25 12:19 084 7 gusting 22 13.3
2017-Feb-25 12:14 115 1 gusting 22 12.8
2017-Feb-25 12:09 068 4 gusting 20 12.8
2017-Feb-25 12:04 103 6 gusting 20 12.8
2017-Feb-25 11:59 106 6 gusting 21 12.8
2017-Feb-25 11:54 113 11 gusting 21 12.8
2017-Feb-25 11:49 091 7 gusting 22 12.8
2017-Feb-25 11:44 063 6 gusting 22 12.8
2017-Feb-25 11:39 005 6 gusting 19 12.8
2017-Feb-25 11:34 108 9 gusting 19 12.8
2017-Feb-25 11:29 104 6 gusting 20 12.8
2017-Feb-25 11:24 091 6 gusting 20 12.8
2017-Feb-25 11:19 108 6 gusting 25 12.8
2017-Feb-25 11:14 032 1 gusting 25 12.8
2017-Feb-25 11:09 070 7 gusting 32 12.2
2017-Feb-25 11:04 049 3 gusting 32 12.2
2017-Feb-25 10:59 350 19 gusting 23 12.2
2017-Feb-25 10:54 109 11 gusting 23 12.2
2017-Feb-25 10:49 040 6 gusting 20 12.2
2017-Feb-25 10:44 040 5 gusting 20 12.2
2017-Feb-25 10:39 073 8 gusting 28 12.2
2017-Feb-25 10:34 070 11 gusting 28 12.2
2017-Feb-25 10:29 119 7 gusting 24 12.2
2017-Feb-25 10:24 014 8 gusting 24 12.2
2017-Feb-25 10:19 065 7 gusting 15 12.2
2017-Feb-25 10:14 022 5 gusting 15 12.2
2017-Feb-25 10:09 355 4 gusting 24 12.2
2017-Feb-25 10:04 077 14 gusting 24 12.2
2017-Feb-25 09:59 063 6 gusting 25 12.2
2017-Feb-25 09:54 030 10 gusting 25 12.2
2017-Feb-25 09:49 031 6 gusting 21 12.2
2017-Feb-25 09:44 074 6 gusting 21 12.2
2017-Feb-25 09:39 062 6 gusting 19 12.2
2017-Feb-25 09:34 020 15 gusting 19 12.2
2017-Feb-25 09:29 099 11 gusting 21 12.2
2017-Feb-25 09:24 076 6 gusting 21 11.7
2017-Feb-25 09:19 042 6 gusting 17 11.7
2017-Feb-25 09:14 114 2 gusting 17 11.7
2017-Feb-25 09:09 028 2 gusting 14 11.7
2017-Feb-25 09:04 031 7 gusting 14 11.7
2017-Feb-25 08:59 027 4 gusting 20 11.7
2017-Feb-25 08:54 091 5 gusting 20 11.7
2017-Feb-25 08:49 031 0 gusting 20 11.7
2017-Feb-25 08:44 080 2 gusting 20 11.7
2017-Feb-25 08:39 099 2 gusting 22 11.1
2017-Feb-25 08:34 017 5 gusting 22 11.1
2017-Feb-25 08:29 037 2 gusting 26 11.1
2017-Feb-25 08:24 089 4 gusting 26 11.1
2017-Feb-25 08:19 090 6 gusting 19 11.1
2017-Feb-25 08:14 062 8 gusting 19 10.6
2017-Feb-25 08:09 074 8 gusting 13 10.6
2017-Feb-25 08:04 027 15 gusting 13 10.0
2017-Feb-25 07:59 031 3 gusting 18 10.0
2017-Feb-25 07:54 066 2 gusting 18 10.0
2017-Feb-25 07:49 005 4 gusting 14 10.0
2017-Feb-25 07:44 057 2 gusting 14 10.0
2017-Feb-25 07:39 048 2 gusting 13 10.0
2017-Feb-25 07:34 015 6 gusting 13 9.4
2017-Feb-25 07:29 355 10 gusting 17 10.0
2017-Feb-25 07:24 028 4 gusting 17 10.0
2017-Feb-25 07:19 041 3 gusting 16 10.0
2017-Feb-25 07:14 041 3 gusting 16 9.4
2017-Feb-25 07:09 039 14 gusting 14 9.4
2017-Feb-25 07:04 104 4 gusting 14 9.4
2017-Feb-25 06:59 051 4 gusting 14 9.4
2017-Feb-25 06:54 060 6 gusting 14 9.4
2017-Feb-25 06:49 096 4 gusting 23 9.4
2017-Feb-25 06:44 062 4 gusting 23 9.4
2017-Feb-25 06:39 090 4 gusting 15 9.4
2017-Feb-25 06:34 070 3 gusting 15 9.4
2017-Feb-25 06:29 034 11 gusting 17 9.4
2017-Feb-25 06:24 046 5 gusting 17 9.4
2017-Feb-25 06:19 051 3 gusting 13 9.4
2017-Feb-25 06:14 092 5 gusting 13 9.4
2017-Feb-25 06:09 044 3 gusting 11 9.4
2017-Feb-25 06:04 071 3 gusting 11 9.4
2017-Feb-25 05:59 005 7 gusting 14 9.4
2017-Feb-25 05:54 107 6 gusting 14 9.4
2017-Feb-25 05:49 061 4 gusting 13 9.4
2017-Feb-25 05:44 005 5 gusting 13 9.4
2017-Feb-25 05:39 098 2 gusting 26 9.4
2017-Feb-25 05:34 053 5 gusting 26 9.4
2017-Feb-25 05:29 135 3 gusting 25 9.4
2017-Feb-25 05:24 075 14 gusting 25 9.4
2017-Feb-25 05:19 011 7 gusting 26 9.4
2017-Feb-25 05:14 093 13 gusting 26 9.4
2017-Feb-25 05:09 061 7 gusting 25 9.4
2017-Feb-25 05:04 082 8 gusting 25 9.4
2017-Feb-25 04:59 107 4 gusting 23 8.9
2017-Feb-25 04:54 090 2 gusting 23 8.9
2017-Feb-25 04:49 101 4 gusting 15 8.9
2017-Feb-25 04:44 124 6 gusting 15 8.9
2017-Feb-25 04:39 026 3 gusting 11 8.9
2017-Feb-25 04:34 089 2 gusting 11 8.9
2017-Feb-25 04:29 038 6 gusting 13 8.9
2017-Feb-25 04:24 024 2 gusting 13 8.9
2017-Feb-25 04:19 116 6 gusting 11 8.9
2017-Feb-25 04:14 020 4 gusting 11 8.9
2017-Feb-25 04:09 038 1 gusting 13 8.9
2017-Feb-25 04:04 103 3 gusting 13 8.9
2017-Feb-25 03:59 005 6 gusting 13 8.9
2017-Feb-25 03:54 085 2 gusting 13 8.9
2017-Feb-25 03:49 055 1 gusting 19 8.9
2017-Feb-25 03:44 066 4 gusting 19 8.9
2017-Feb-25 03:39 103 6 gusting 13 8.9
2017-Feb-25 03:34 062 6 gusting 13 8.9
2017-Feb-25 03:24 111 2 gusting 17 8.9
2017-Feb-25 03:19 039 8 gusting 24 8.9
2017-Feb-25 03:14 046 5 gusting 24 8.9
2017-Feb-25 03:09 345 3 gusting 17 8.9
2017-Feb-25 03:04 064 6 gusting 17 8.9
2017-Feb-25 02:59 051 5 gusting 26 8.9
2017-Feb-25 02:54 053 8 gusting 26 8.9
2017-Feb-25 02:49 005 9 gusting 21 8.9
2017-Feb-25 02:44 074 4 gusting 21 8.9
2017-Feb-25 02:39 079 4 gusting 15 8.9
2017-Feb-25 02:34 089 4 gusting 15 8.9
2017-Feb-25 02:29 067 4 gusting 13 8.9
2017-Feb-25 02:24 334 8 gusting 13 8.9
2017-Feb-25 02:19 057 8 gusting 23 8.9
2017-Feb-25 02:14 033 0 gusting 19 8.9
2017-Feb-25 02:09 083 2 gusting 19 8.9
2017-Feb-25 02:04 090 6 gusting 19 8.9
2017-Feb-25 01:59 071 2 gusting 18 8.9
2017-Feb-25 01:54 102 1 gusting 18 9.4
2017-Feb-25 01:49 065 1 gusting 18 9.4
2017-Feb-25 01:44 106 10 gusting 18 9.4
2017-Feb-25 01:39 122 3 gusting 28 9.4
2017-Feb-25 01:34 080 6 gusting 28 9.4
2017-Feb-25 01:29 088 4 gusting 20 9.4
2017-Feb-25 01:24 109 20 gusting 20 9.4
2017-Feb-25 01:19 068 8 gusting 22 10.0
2017-Feb-25 01:14 103 4 gusting 22 10.0
2017-Feb-25 01:09 079 1 gusting 21 9.4
2017-Feb-25 01:04 112 6 gusting 21 9.4
2017-Feb-25 00:59 111 9 gusting 23 9.4
2017-Feb-25 00:54 053 5 gusting 23 9.4
2017-Feb-25 00:49 058 6 gusting 22 9.4
2017-Feb-25 00:44 117 14 gusting 22 9.4
2017-Feb-25 00:39 117 11 gusting 15 9.4
2017-Feb-25 00:34 107 6 gusting 15 9.4
2017-Feb-25 00:29 084 5 gusting 13 9.4
2017-Feb-25 00:24 103 9 gusting 13 10.0
2017-Feb-25 00:19 088 6 gusting 13 10.0
2017-Feb-25 00:14 106 8 gusting 8 10.6
2017-Feb-25 00:09 093 1 gusting 8 10.6
2017-Feb-25 00:04 005 11.1
2017-Feb-24 23:59 023 0 gusting 6 11.1
2017-Feb-24 23:54 005 3 gusting 6 11.1
2017-Feb-24 23:49 019 1 gusting 6 11.7
2017-Feb-24 23:44 025 2 gusting 6 11.7
2017-Feb-24 23:39 026 4 gusting 4 11.7
2017-Feb-24 23:34 026 2 gusting 4 11.7
2017-Feb-24 23:29 013 11.7
2017-Feb-24 23:24 013 4 gusting 4 11.7
2017-Feb-24 23:19 013 11.7
2017-Feb-24 23:14 005 1 gusting 4 11.7
2017-Feb-24 23:09 005 11.7
2017-Feb-24 23:04 005 0 gusting 2 11.7
2017-Feb-24 22:59 005 11.7
2017-Feb-24 22:54 005 11.7
2017-Feb-24 22:49 005 0 11.7
2017-Feb-24 22:44 005 11.7
2017-Feb-24 22:39 005 11.7
2017-Feb-24 22:34 005 11.7
2017-Feb-24 22:29 005 11.7
2017-Feb-24 22:24 005 11.7
2017-Feb-24 22:19 005 11.7
2017-Feb-24 22:14 005 11.7
2017-Feb-24 22:09 005 11.7
2017-Feb-24 22:04 005 11.7
2017-Feb-24 21:59 005 11.7
2017-Feb-24 21:54 005 11.7
2017-Feb-24 21:49 005 2 gusting 6 11.7
2017-Feb-24 21:44 005 4 gusting 6 12.2
2017-Feb-24 21:39 005 4 gusting 6 12.2
2017-Feb-24 21:34 009 3 gusting 6 12.2
2017-Feb-24 21:29 011 4 gusting 6 12.2
2017-Feb-24 21:24 005 6 gusting 6 12.2
2017-Feb-24 21:19 005 1 gusting 6 12.2
2017-Feb-24 21:09 355 4 gusting 5 12.2
2017-Feb-24 21:04 355 3 gusting 5 12.2
2017-Feb-24 20:59 342 3 gusting 6 12.2
2017-Feb-24 20:54 342 12.2
2017-Feb-24 20:49 339 2 gusting 4 12.2
2017-Feb-24 20:44 349 2 gusting 4 12.2
2017-Feb-24 20:39 050 2 gusting 4 12.2
2017-Feb-24 20:34 052 1 gusting 4 12.2
2017-Feb-24 20:29 052 0 gusting 2 12.2
2017-Feb-24 20:24 005 0 gusting 2 12.2
2017-Feb-24 20:19 355 0 gusting 1 12.2
2017-Feb-24 20:14 348 12.2
2017-Feb-24 20:09 344 0 gusting 4 12.2
2017-Feb-24 20:04 344 12.2
2017-Feb-24 19:59 344 1 gusting 5 12.2
2017-Feb-24 19:54 344 2 gusting 5 12.2
2017-Feb-24 19:49 344 3 gusting 5 12.2
2017-Feb-24 19:44 078 3 gusting 5 12.2
2017-Feb-24 19:39 094 12.2
2017-Feb-24 19:34 094 12.2
2017-Feb-24 19:29 094 12.2
2017-Feb-24 19:24 094 12.2
2017-Feb-24 19:19 094 12.2
2017-Feb-24 19:14 095 2 gusting 5 12.2
2017-Feb-24 19:09 091 2 gusting 6 12.2
2017-Feb-24 19:04 005 12.2
2017-Feb-24 18:54 005 3 gusting 5 12.2
2017-Feb-24 18:49 009 1 gusting 6 12.2
2017-Feb-24 18:44 351 1 gusting 6 12.2
2017-Feb-24 18:39 016 1 gusting 3 12.2
2017-Feb-24 18:34 122 2 gusting 3 12.2
2017-Feb-24 18:29 132 1 gusting 4 12.2
2017-Feb-24 18:24 132 12.2
2017-Feb-24 18:19 132 12.2
2017-Feb-24 18:14 132 3 gusting 3 12.2
2017-Feb-24 18:09 143 1 gusting 4 12.2
2017-Feb-24 18:04 143 12.2
2017-Feb-24 17:59 143 12.2
2017-Feb-24 17:54 143 1 gusting 4 12.2
2017-Feb-24 17:49 145 2 gusting 3 12.2
2017-Feb-24 17:44 145 12.2
2017-Feb-24 17:39 145 12.2
2017-Feb-24 17:34 145 3 gusting 2 12.2
2017-Feb-24 17:29 148 12.2
2017-Feb-24 17:24 148 12.2
2017-Feb-24 17:19 148 12.2
2017-Feb-24 17:14 148 12.2
2017-Feb-24 17:09 148 12.2
2017-Feb-24 17:04 148 12.2
2017-Feb-24 16:59 148 12.2
2017-Feb-24 16:54 148 12.2
2017-Feb-24 16:49 148 12.8
2017-Feb-24 16:44 148 12.8
2017-Feb-24 16:39 148 12.8
2017-Feb-24 16:34 148 12.8
2017-Feb-24 16:29 148 12.8
2017-Feb-24 16:24 148 3 gusting 5 12.8
2017-Feb-24 16:19 144 4 gusting 5 12.8
2017-Feb-24 16:14 143 4 gusting 5 12.8
2017-Feb-24 16:09 142 3 gusting 6 12.8
2017-Feb-24 16:04 168 3 gusting 6 12.8
2017-Feb-24 15:59 168 3 gusting 6 12.8
2017-Feb-24 15:54 168 3 gusting 6 12.2
2017-Feb-24 15:49 168 3 gusting 6 12.2
2017-Feb-24 15:44 169 4 gusting 6 12.2
2017-Feb-24 15:39 171 3 gusting 3 12.8
2017-Feb-24 15:34 172 5 gusting 3 12.8
2017-Feb-24 15:29 183 0 gusting 3 12.8
2017-Feb-24 15:24 183 2 gusting 3 12.8
2017-Feb-24 15:19 184 1 gusting 4 12.8
2017-Feb-24 15:14 184 12.8
2017-Feb-24 15:09 184 13.3
2017-Feb-24 15:04 180 2 gusting 4 13.3
2017-Feb-24 14:59 176 13.3
2017-Feb-24 14:54 171 0 gusting 2 13.3
2017-Feb-24 14:49 167 2 gusting 0 13.3
2017-Feb-24 14:44 163 13.3
2017-Feb-24 14:39 154 13.3
2017-Feb-24 14:34 154 13.3
2017-Feb-24 14:29 154 13.3
2017-Feb-24 14:24 142 3 gusting 7 13.3
2017-Feb-24 14:19 169 4 gusting 4 13.3
2017-Feb-24 14:14 154 12.8
2017-Feb-24 14:09 304 1 gusting 1 12.8
2017-Feb-24 14:04 304 12.8
2017-Feb-24 13:59 304 13.3
2017-Feb-24 13:54 304 13.3
2017-Feb-24 13:49 304 2 gusting 4 13.3
2017-Feb-24 13:44 304 1 gusting 4 13.3
2017-Feb-24 13:39 301 2 13.3
2017-Feb-24 13:34 301 13.3
2017-Feb-24 13:29 301 13.3
2017-Feb-24 13:24 301 13.3
2017-Feb-24 13:19 301 12.8
2017-Feb-24 13:14 301 12.8
2017-Feb-24 13:09 301 12.8
2017-Feb-24 13:04 301 12.8